World > North America > United States > Arizona

Hourly Youngtown, AZ Regional Weather

Feedback E-mail the Weather

Latest News

Youngtown, AZ Weather Maps

°F °C°F °C
Youngtown Weather Map
UTC Time: 5/20/2022, 03:19
Your Time:

Youngtown, AZ Regional Weather

Expires:202205200300;;296706
ASUS45 KPSR 200210
RWRAZ 

ARIZONA HOURLY REGIONAL WEATHER ROUNDUP
NATIONAL WEATHER SERVICE PHOENIX AZ
700 PM MST THU MAY 19 2022

NOTE: FAIR INDICATES FEW OR NO CLOUDS BELOW 12,000 FEET WITH NO
SIGNIFICANT WEATHER AND/OR OBSTRUCTIONS TO VISIBILITY.


AZZ540-542>544-546-548-200300-
GREATER PHOENIX AREA
  
CITY           SKY/WX    TMP DP  RH WIND       PRES   REMARKS
PHOENIX        MOCLDY    95  24   8 W17G29    29.62S                  
BUCKEYE          N/A     90  34  13 SW17      29.64F                  
GLENDALE       CLEAR     95  23   7 SW10      29.63S                  
LUKE AFB       FAIR      94  24   8 SW13      29.62F                  
DEER VALLEY    FAIR      92  25   9 W16       29.65F                  
SCOTTSDALE     FAIR      93  22   7 W16G24    29.66F                  
MESA-FALCON    FAIR      94  28   9 W10G21    29.64S                  
MESA-GATEWAY   CLEAR     95  25   8 W13       29.66S                  
CHANDLER       CLEAR     97  23   7 W16       29.64S                  
$$


SKY/WX - Weather  TMP - Temperature  DP - Dew Point  RH - Humidity
WIND - Wind Direction/Speed PRES - Barometric Pressure VSB - Visibility
WCI - Wind Chill Index E13G22 Wind - East Wind 13 mph/Gusts of 22 mph

Trending Headlines

Youngtown Radar Loop



Youngtown Quick Facts


National Two Day Weather Forecast


E-mail the Youngtown Weather Forecast

Voice your opinion or tell us about page issues...